Hourly Data Report for September 14, 2017

All times are specified in Local Standard Time (LST). Add 1 hour to adjust for Daylight Saving Time where and when it is observed.

MIRAMICHI RCS
NEW BRUNSWICK

47°00'34.000" N
65°27'54.000" W
33.00 m
8100989
71744
ACQ

Download Data

Hourly Data (September 2017)
Hourly Data Report for September 14, 2017
Temp Definition
°C
Dew Point Temp Definition
°C
Rel Hum Definition
%
Wind Dir Definition
10's deg

Wind Spd Definition
km/h
Visibility Definition
km
Stn Press Definition
kPa
Hmdx Definition


Wind Chill Definition


Weather Definition


TIME
00:00 17.6 11.7 68 24 15   100.07     LegendNANA
01:00 16.9 11.6 71 23 14   100.08     LegendNANA
02:00 16.6 11.6 73 24 8   100.10     LegendNANA
03:00 16.4 11.7 74 24 12   100.12     LegendNANA
04:00 15.9 11.8 77 24 10   100.13     LegendNANA
05:00 14.9 11.5 80 25 5   100.16     LegendNANA
06:00 13.7 11.2 85 23 5   100.22     LegendNANA
07:00 14.4 12.1 86 24 4   100.29     LegendNANA
08:00 16.9 12.9 77 24 12   100.33     LegendNANA
09:00 18.9 13.6 71 25 12   100.37     LegendNANA
10:00 21.2 14.4 65 23 11   100.37 25   LegendNANA
11:00 23.4 15.6 62 23 11   100.38 28   LegendNANA
12:00 25.0 15.3 55 23 13   100.35 29   LegendNANA
13:00 26.2 15.7 53 23 13   100.33 31   LegendNANA
14:00 27.2 14.7 47 22 14   100.30 31   LegendNANA
15:00 27.3 14.3 45 24 14   100.28 31   LegendNANA
16:00 26.9 14.8 48 27 9   100.32 31   LegendNANA
17:00 26.8 14.3 46 29 10   100.37 30   LegendNANA
18:00 23.1 15.6 62 4 11   100.50 27   LegendNANA
19:00 20.0 16.0 78 5 8   100.60 25   LegendNANA
20:00 18.8 15.1 79 6 6   100.71     LegendNANA
21:00 18.5 11.3 63 5 6   100.77     LegendNANA
22:00 17.4 8.8 57 4 5   100.83     LegendNANA
23:00 16.2 8.0 58 3 6   100.90     LegendNANA

Notes on Data Quality.

Legend

  • E = Estimated
  • M = Missing
  • NA = Not Available
  • ‡ = Partner data that is not subject to review by the National Climate Archives
Date modified: